FSKL5695-12

operational
NORAD ID: 64889 Int'l Des: NNA 2025-155 Owner: RATEKS Country: RU
LEOCIRCULARRETROGRADESSO

Über FSKL5695-12

Beschreibung wird geladen...

Live-Position

3D-Globus wird geladen...

Nächste Überflüge

Höhenverlauf

Altitude vs Time

uPlot chart will show altitude changes over time

Zweizeiliger Elementsatz

1 64889U 25155P 25340.93515576 .00009305 00000-0 38580-3 0 9992
2 64889 97.4357 304.6460 0009058 125.2102 234.9985 15.24066720 51403
Epoch: 6. Dez. 2025 • Age: 12 hours

Aktueller Status

Höhe 527.0 km
Geschwindigkeit 7.60 km/s
Subsatellitenpunkt -77.35°S, 103.53°E
Startdatum 25. Juli 2025
Alter 0.3 years
Typ other

Technische Details

Klassifizierung Payload
Masse 3.00 kg
Trockenmasse 3.00 kg
Gesamtmasse 3.00 kg
Länge 0.30 m
Durchmesser 0.10 m
Spannweite 0.30 m
Form Box
Hersteller RATEKS
Bus-Typ Cubesat 3U
Phasenstatus In Orbit
Besitzer/Staat RATEKS/RU

Große Konstellationen

Loading constellations...